Estación municipal de Cànoves i Samalús (Vallès Oriental, P.N.del Montseny)

Consulta los datos en tiempo real de la estación municipal de Cànoves i Samalús





Hora UTC 21:50
Temperatura 19.9 ºC
Humedad 83.6 %
Presión 1019.5 hPa
Pluja 0.0 mm
Velocidad viento 4.3 km/h
Dirección viento NNW
Radiación solar 0.1 W/m²

Webcam

Datos diarios 2026-09-01



Hora UTC (invierno +1h; verano +2h)
Temperatura (ºC) Humedad (%) Presión (hPa) Velocidad viento (km/h) Precipitación (mm) Radiación solar (W/m²)
Hora UTC Aire Humedad Presión Vel. Dir. Vel. Max Dir. Intent. máx 5 min. Rad. Sol.
00:05 20.0 91.8 1020.6 3.7 NW 3.7 NW 0.0 0.1
00:10 20.0 92.0 1020.6 2.6 NW 3.9 NW 0.0 0.1
00:15 19.9 91.7 1020.6 2.6 WNW 3.5 WNW 0.0 0.1
00:20 19.9 91.7 1020.6 3.0 NW 3.9 NW 0.0 0.1
00:25 19.8 91.5 1020.5 2.2 NW 3.5 NW 0.0 0.1
00:30 19.7 91.6 1020.5 2.1 NW 3.2 NW 0.0 0.1
00:35 19.7 91.6 1020.5 2.9 NW 3.5 NW 0.0 0.1
00:40 19.6 91.7 1020.5 2.9 NNW 3.9 NW 0.0 0.1
00:45 19.7 91.7 1020.6 2.6 NW 3.9 NW 0.0 0.1
00:50 19.6 91.9 1020.6 1.8 NNW 2.8 NW 0.0 0.1
00:55 19.6 91.9 1020.6 0.6 NNW 2.1 NNW 0.0 0.1
01:00 19.6 91.9 1020.6 2.1 NNW 4.2 N 0.0 0.1
01:05 19.6 92.1 1020.6 3.0 NNW 5.3 NNW 0.0 0.1
01:10 19.7 91.9 1020.6 3.1 NNW 4.9 NNW 0.0 0.1
01:15 19.6 91.8 1020.5 2.7 NNW 3.5 NNW 0.0 0.1
01:20 19.6 91.7 1020.4 2.9 NNW 3.9 NNW 0.0 0.1
01:25 19.6 91.6 1020.4 3.5 NNW 4.9 N 0.0 0.1
01:30 19.6 91.7 1020.4 2.6 NNW 3.5 NNW 0.0 0.1
01:35 19.5 91.7 1020.5 2.7 NNW 3.5 NNW 0.0 0.1
01:40 19.5 92.0 1020.5 3.5 NNW 4.9 NNW 0.0 0.1
01:45 19.6 92.3 1020.5 3.3 NNW 5.3 NW 0.0 0.1
01:50 19.7 92.3 1020.4 2.7 NNW 3.5 NNE 0.0 0.1
01:55 19.8 92.2 1020.4 2.5 NNW 3.9 NNW 0.0 0.1
02:00 19.7 92.1 1020.4 2.1 NNW 2.8 NNW 0.0 0.1
02:05 19.8 92.3 1020.4 2.3 NNW 3.5 NNW 0.0 0.1
02:10 19.9 92.3 1020.3 2.9 NNW 3.9 NNW 0.0 0.1
02:15 19.8 91.8 1020.3 2.6 NNW 3.5 NNW 0.0 0.1
02:20 19.8 91.8 1020.2 2.2 NNW 3.2 NNW 0.0 0.1
02:25 19.8 91.7 1020.2 2.4 NW 3.2 NNW 0.0 0.1
02:30 19.7 91.9 1020.1 1.9 NW 3.2 WNW 0.0 0.1
02:35 19.8 92.3 1020.0 1.7 NW 3.2 NW 0.0 0.1
02:40 19.9 92.2 1020.0 1.3 NW 2.5 NW 0.0 0.1
02:45 19.8 91.9 1019.9 1.9 NW 2.8 NW 0.0 0.1
02:50 19.7 91.7 1019.9 2.0 NW 2.8 NW 0.0 0.1
02:55 19.6 91.8 1019.8 2.9 NNW 4.2 NNW 0.0 0.1
03:00 19.6 91.9 1019.8 2.7 NW 3.9 NNW 0.0 0.1
03:05 19.6 92.1 1019.8 4.0 NW 7.1 NW 0.0 0.1
03:10 19.6 92.4 1019.7 4.3 NW 7.4 NW 0.0 0.1
03:15 19.6 92.1 1019.7 2.0 NNW 4.6 NW 0.0 0.1
03:20 19.6 91.9 1019.6 3.0 NNW 3.9 NNW 0.0 0.1
03:25 19.6 91.8 1019.6 3.0 NNW 5.3 NW 0.0 0.1
03:30 19.5 91.5 1019.6 1.8 WNW 5.3 NW 0.0 0.1
03:35 19.5 91.6 1019.6 2.4 NW 4.2 WNW 0.0 0.1
03:40 19.4 91.4 1019.6 1.9 NNW 3.9 NW 0.0 0.1
03:45 19.3 91.3 1019.6 1.4 NNW 2.1 NNW 0.0 0.1
03:50 19.2 91.3 1019.6 2.7 NNW 3.5 NNW 0.0 0.1
03:55 19.1 91.6 1019.5 2.9 NW 3.9 NW 0.0 0.1
04:00 19.1 91.7 1019.5 2.3 NW 3.5 NW 0.0 0.1
04:05 19.0 91.8 1019.5 2.5 NW 3.2 NW 0.0 0.1
04:10 19.0 92.0 1019.5 2.9 NNW 3.9 NNW 0.0 0.1
04:15 18.9 91.9 1019.4 2.3 NNW 3.5 NNW 0.0 0.1
04:20 18.8 91.8 1019.5 2.1 NW 2.8 N 0.0 0.1
04:25 18.7 91.8 1019.5 2.0 NNW 2.8 NNW 0.0 0.1
04:30 18.6 91.9 1019.5 2.5 NNW 3.2 NNW 0.0 0.1
04:35 18.6 92.0 1019.4 3.2 NNW 4.2 NNW 0.0 0.1
04:40 18.5 92.1 1019.4 3.3 NNW 4.6 NW 0.0 0.1
04:45 18.5 92.1 1019.4 3.0 NNW 3.9 NW 0.0 0.1
04:50 18.5 92.3 1019.4 3.4 NNW 4.2 NNW 0.0 0.1
04:55 18.5 92.4 1019.4 2.9 NNW 3.9 NNW 0.0 0.3
05:00 18.5 92.5 1019.4 3.7 NW 4.6 NW 0.0 0.7
05:05 18.5 92.4 1019.4 4.0 NNW 4.9 NNW 0.0 1.3
05:10 18.5 92.4 1019.4 3.7 NNW 5.3 NNW 0.0 2.5
05:15 18.4 92.1 1019.5 4.1 NNW 5.3 NNW 0.0 4.0
05:20 18.4 92.3 1019.5 4.0 NNW 5.3 NNW 0.0 6.1
05:25 18.3 92.2 1019.5 3.5 NNW 6.4 NNW 0.0 8.6
05:30 18.3 92.4 1019.5 3.3 NNW 4.2 NNW 0.0 11.4
05:35 18.3 92.4 1019.5 3.1 NNW 4.9 NNW 0.0 14.5
05:40 18.4 92.6 1019.6 4.8 NNW 8.5 N 0.0 17.5
05:45 18.4 92.5 1019.6 4.1 NNW 5.6 NNW 0.0 20.6
05:50 18.5 92.6 1019.6 3.5 NNW 4.6 NNW 0.0 24.2
05:55 18.7 92.9 1019.5 2.7 N 4.6 0.0 28.0
06:00 18.9 92.8 1019.6 2.1 N 4.6 NNE 0.0 43.2
06:05 19.1 92.9 1019.6 3.4 N 6.7 N 0.0 31.4
06:10 19.4 91.9 1019.6 2.6 N 7.4 NNW 0.0 32.6
06:15 19.7 90.8 1019.6 3.2 NNW 6.7 N 0.0 34.4
06:20 20.1 89.2 1019.6 2.8 N 5.6 N 0.0 35.6
06:25 20.4 87.6 1019.7 0.6 N 2.8 NNE 0.0 37.8
06:30 20.6 86.3 1019.8 1.0 NNE 3.2 NNE 0.0 40.8
06:35 21.0 84.7 1019.8 1.0 NE 3.5 NE 0.0 40.7
06:40 21.3 83.5 1019.7 0.6 NE 2.8 ENE 0.0 41.5
06:45 21.6 81.3 1019.7 2.3 SSW 10.9 SW 0.0 42.3
06:50 22.1 77.3 1019.7 5.5 SSW 12.0 SW 0.0 43.8
06:55 22.9 73.6 1019.8 3.1 SW 10.2 WNW 0.0 45.4
07:00 23.3 71.2 1019.8 6.5 SSW 13.8 SW 0.0 46.6
07:05 23.7 70.4 1019.8 5.4 SW 13.8 S 0.0 48.0
07:10 23.8 68.6 1019.8 7.8 SW 13.1 SW 0.0 49.5
07:15 23.9 68.1 1019.7 5.2 WSW 13.8 WSW 0.0 51.1
07:20 24.2 67.5 1019.7 5.5 SSW 10.2 SW 0.0 66.0
07:25 24.3 67.2 1019.6 3.5 SW 9.5 SSW 0.0 52.6
07:30 24.5 67.5 1019.5 6.3 SSE 13.1 SSW 0.0 104.4
07:35 24.7 67.1 1019.5 7.1 S 10.9 S 0.0 128.5
07:40 24.8 66.8 1019.5 5.9 S 10.9 S 0.0 105.6
07:45 25.0 66.7 1019.6 5.1 SSW 11.3 S 0.0 173.4
07:50 25.2 66.4 1019.6 5.9 SW 15.2 S 0.0 279.2
07:55 25.5 65.6 1019.6 6.8 S 10.9 SW 0.0 400.6
08:00 25.8 65.1 1019.6 6.0 SSE 12.4 SSE 0.0 416.4
08:05 25.8 64.6 1019.5 5.5 SSE 9.2 ESE 0.0 432.0
08:10 26.0 64.7 1019.5 4.6 SSE 8.8 SSE 0.0 446.0
08:15 26.1 64.0 1019.6 8.7 SE 12.0 ESE 0.0 458.9
08:20 26.2 63.9 1019.7 5.1 E 10.9 E 0.0 470.5
08:25 26.2 63.1 1019.7 4.6 NE 9.5 NE 0.0 485.9
08:30 26.2 64.2 1019.7 4.9 NNW 8.5 NNW 0.0 499.1
08:35 26.6 62.5 1019.7 4.9 SE 12.4 ESE 0.0 481.1
08:40 26.6 61.8 1019.7 7.8 SE 14.5 SE 0.0 509.5
08:45 26.8 61.8 1019.7 6.8 ESE 14.1 ESE 0.0 533.6
08:50 27.0 61.0 1019.7 7.3 SE 12.4 ESE 0.0 546.5
08:55 27.0 61.0 1019.8 5.8 SE 10.6 SSE 0.0 559.6
09:00 27.1 60.9 1019.8 7.2 SE 14.1 SE 0.0 572.8
09:05 27.2 60.3 1019.9 6.8 SSE 11.6 S 0.0 582.1
09:10 27.0 60.8 1020.0 5.9 E 12.0 ESE 0.0 592.0
09:15 27.4 60.3 1020.1 5.8 SSE 11.6 S 0.0 602.9
09:20 27.6 59.5 1020.1 6.7 SE 13.4 SE 0.0 618.0
09:25 27.6 59.4 1020.1 9.8 SE 14.5 SE 0.0 624.0
09:30 27.2 60.2 1020.1 5.5 S 9.9 S 0.0 630.8
09:35 27.4 59.7 1020.1 6.9 SSW 18.0 SE 0.0 646.0
09:40 27.6 59.1 1020.2 9.4 SSE 16.6 SSE 0.0 654.5
09:45 27.7 58.2 1020.3 7.5 SE 14.5 SE 0.0 678.1
09:50 28.0 56.8 1020.3 7.4 SE 18.4 SE 0.0 688.4
09:55 28.2 55.8 1020.3 9.5 SSE 17.6 S 0.0 678.6
10:00 28.2 55.2 1020.3 10.5 SSE 18.4 SW 0.0 706.2
10:05 28.6 54.8 1020.4 6.6 SSE 15.2 SSW 0.0 731.8
10:10 28.6 57.1 1020.3 13.5 SE 26.1 SE 0.0 803.0
10:15 28.2 58.7 1020.3 11.6 SSE 20.1 SE 0.0 774.1
10:20 28.5 57.8 1020.4 11.5 SE 19.8 ESE 0.0 485.7
10:25 27.7 59.4 1020.4 13.5 SE 27.5 ESE 0.0 408.6
10:30 27.9 58.0 1020.4 11.3 SE 18.7 SSE 0.0 614.7
10:35 28.2 57.2 1020.3 14.3 SE 27.9 SE 0.0 846.0
10:40 28.6 55.8 1020.4 9.2 S 19.8 SSE 0.0 638.4
10:45 28.6 55.2 1020.4 8.6 SSE 15.9 SSE 0.0 465.0
10:50 28.2 55.7 1020.3 9.5 S 19.8 SSE 0.0 337.1
10:55 27.8 55.9 1020.4 9.3 S 26.8 WSW 0.0 352.3
11:00 27.8 55.8 1020.3 8.8 S 18.4 SE 0.0 236.3
11:05 27.8 55.5 1020.3 6.0 S 12.7 WSW 0.0 795.4
11:10 28.3 54.5 1020.3 7.6 SSW 20.5 W 0.0 792.5
11:15 28.5 54.3 1020.2 10.4 SSE 24.7 S 0.0 532.4
11:20 28.7 54.4 1020.2 11.4 SSE 23.6 SE 0.0 750.0
11:25 28.7 54.2 1020.3 9.0 S 20.1 SSE 0.0 747.2
11:30 28.4 54.4 1020.3 9.2 SSW 19.1 SSE 0.0 428.3
11:35 28.4 55.4 1020.3 7.8 S 23.6 SSW 0.0 821.0
11:40 28.8 54.4 1020.2 8.7 SSE 19.4 SSW 0.0 843.0
11:45 29.0 54.0 1020.2 8.6 S 18.7 SSW 0.0 730.0
11:50 29.0 54.2 1020.1 10.3 SSE 22.9 S 0.0 814.0
11:55 29.1 54.7 1020.1 8.5 S 16.2 SSE 0.0 672.7
12:00 29.0 54.4 1020.1 7.8 S 14.8 SSW 0.0 364.8
12:05 28.8 55.3 1020.0 5.0 SSE 22.6 S 0.0 521.3
12:10 28.8 55.6 1020.0 9.4 S 24.3 S 0.0 666.5
12:15 28.4 57.2 1019.9 12.8 S 23.6 SSE 0.0 218.8
12:20 27.9 59.0 1020.0 8.7 S 17.3 SSE 0.0 441.7
12:25 28.6 58.4 1020.0 11.0 S 21.5 S 0.0 928.0
12:30 28.7 57.9 1020.0 9.7 S 17.6 SSW 0.0 373.4
12:35 28.1 60.2 1019.9 7.2 S 16.9 SSE 0.0 243.8
12:40 27.8 61.7 1019.8 8.8 SSE 17.3 SSE 0.0 343.3
12:45 28.0 62.1 1019.7 12.9 SSE 24.7 SE 0.0 493.5
12:50 28.0 62.3 1019.6 10.9 S 19.1 S 0.0 500.1
12:55 28.2 61.8 1019.7 9.4 S 21.2 SSE 0.0 399.8
13:00 28.1 62.1 1019.6 8.0 SW 19.8 SSW 0.0 213.1
13:05 27.7 63.9 1019.6 8.0 SSE 16.6 SE 0.0 296.9
13:10 27.8 63.2 1019.6 9.9 S 21.2 S 0.0 341.3
13:15 27.8 63.4 1019.6 10.6 S 19.8 S 0.0 253.3
13:20 27.6 64.1 1019.6 11.7 SSE 22.6 S 0.0 535.7
13:25 28.2 63.1 1019.6 10.3 S 19.4 S 0.0 752.7
13:30 28.1 62.5 1019.4 16.2 S 25.4 S 0.0 753.8
13:35 28.2 62.7 1019.3 10.2 S 19.4 SSW 0.0 627.2
13:40 27.8 63.2 1019.2 7.9 S 22.9 S 0.0 140.7
13:45 27.4 64.3 1019.1 11.4 SSE 21.5 SSE 0.0 170.4
13:50 27.3 64.8 1019.1 9.0 SSE 16.6 SSW 0.0 204.7
13:55 27.2 64.6 1018.9 8.8 SSE 18.0 S 0.0 148.0
14:00 27.0 65.2 1018.9 10.9 S 17.3 S 0.0 160.7
14:05 26.9 65.2 1018.9 9.3 S 18.0 S 0.0 228.9
14:10 27.0 64.6 1018.8 8.9 S 16.6 S 0.0 196.3
14:15 27.0 64.8 1018.8 6.4 SSE 12.7 S 0.0 184.0
14:20 27.2 64.6 1018.8 5.2 S 11.3 S 0.0 346.4
14:25 27.5 65.0 1019.0 9.8 SSE 17.6 SE 0.0 553.7
14:30 27.5 65.8 1019.1 13.1 SSE 22.2 SSE 0.0 527.6
14:35 27.3 65.7 1019.1 8.9 SSW 15.5 S 0.0 253.4
14:40 27.0 64.8 1019.0 10.4 SSE 19.1 SE 0.0 159.7
14:45 26.6 65.8 1018.9 9.5 SSE 18.7 SSW 0.0 169.6
14:50 26.5 66.3 1018.9 6.2 S 16.2 SSW 0.0 263.9
14:55 26.6 66.4 1019.0 8.2 SSW 13.8 S 0.0 323.4
15:00 26.9 65.4 1018.9 10.2 SSE 19.8 SE 0.0 329.9
15:05 26.5 66.4 1019.2 11.1 S 22.6 S 0.0 165.9
15:10 25.9 68.3 1019.2 9.8 S 15.9 S 0.0 132.9
15:15 25.8 69.3 1019.0 8.7 S 15.2 SE 0.0 148.8
15:20 25.7 70.3 1018.8 5.9 SSE 15.5 SSE 0.0 174.3
15:25 25.7 71.2 1018.9 9.1 S 16.2 S 0.0 343.8
15:30 25.9 70.9 1019.1 7.9 S 12.7 SE 0.0 511.9
15:35 26.5 69.5 1019.1 7.5 SSW 13.1 S 0.0 539.7
15:40 26.6 69.3 1019.1 7.8 SSW 14.8 S 0.0 493.6
15:45 26.4 69.3 1018.8 6.5 S 12.0 SSE 0.0 297.8
15:50 26.6 69.2 1018.8 5.7 SSW 11.3 W 0.0 410.4
15:55 26.9 68.2 1018.8 3.6 SSW 13.4 ESE 0.0 382.9
16:00 27.0 67.6 1018.7 7.6 SSW 19.1 SSW 0.0 366.7
16:05 26.9 67.5 1018.5 5.4 SSW 14.8 SSW 0.0 266.8
16:10 26.8 67.5 1018.5 7.7 S 13.1 SSE 0.0 260.3
16:15 26.4 68.1 1018.6 6.4 SSW 13.8 S 0.0 153.1
16:20 26.3 68.6 1018.6 7.9 S 16.2 SSE 0.0 154.5
16:25 26.3 68.9 1018.7 1.9 SW 6.7 SSW 0.0 115.6
16:30 26.2 68.7 1018.8 6.6 S 12.0 SSE 0.0 109.6
16:35 25.9 69.0 1018.7 5.8 SSW 15.5 SSW 0.0 104.1
16:40 25.8 68.9 1018.6 5.6 S 12.0 SSE 0.0 96.4
16:45 25.7 68.7 1018.5 5.7 SSW 12.7 SSW 0.0 89.8
16:50 25.6 68.9 1018.5 7.8 S 13.1 SSW 0.0 79.2
16:55 25.5 69.2 1018.3 4.3 S 9.5 SW 0.0 71.1
17:00 25.5 69.2 1018.2 2.7 SSW 7.4 WSW 0.0 63.7
17:05 25.5 69.2 1018.2 4.1 S 9.5 SSW 0.0 57.8
17:10 25.4 69.2 1018.3 5.0 SSW 10.6 SSW 0.0 53.6
17:15 25.3 69.2 1018.4 4.2 SSW 8.5 S 0.0 51.3
17:20 25.2 69.2 1018.4 3.6 WSW 8.5 W 0.0 51.1
17:25 25.2 69.4 1018.5 2.7 SW 8.5 W 0.0 48.7
17:30 25.2 69.7 1018.4 4.0 SW 6.7 W 0.0 45.6
17:35 25.1 70.0 1018.3 3.9 SW 8.8 SW 0.0 45.8
17:40 25.1 70.1 1018.3 2.5 SW 7.4 WSW 0.0 54.3
17:45 25.1 69.9 1018.1 2.4 SW 6.0 SSW 0.0 45.8
17:50 25.0 69.5 1018.0 3.4 NW 8.5 WNW 0.0 27.7
17:55 25.0 69.3 1018.1 2.4 WSW 7.4 WNW 0.0 23.5
18:00 24.9 69.5 1018.0 2.1 SW 5.3 S 0.0 22.8
18:05 24.7 70.1 1017.9 2.6 S 6.0 S 0.0 18.9
18:10 24.6 72.1 1017.9 2.3 SSW 6.0 S 0.0 12.1
18:15 24.4 72.7 1017.8 3.4 SW 7.8 SW 0.0 8.4
18:20 24.3 72.9 1017.7 1.2 WSW 5.6 WSW 0.0 3.5
18:25 24.2 73.5 1017.6 1.8 W 3.5 W 0.0 1.7
18:30 24.0 73.4 1017.5 1.6 NW 3.5 NW 0.0 1.7
18:35 23.8 73.2 1017.5 1.9 W 5.3 W 0.0 0.6
18:40 23.6 73.7 1017.5 1.4 SSW 3.5 S 0.0 0.3
18:45 23.5 74.1 1017.5 2.3 S 4.9 SSE 0.0 0.2
18:50 23.4 74.1 1017.5 0.8 SW 2.8 SW 0.0 0.1
18:55 23.3 74.3 1017.6 1.8 S 3.9 SSE 0.0 0.1
19:00 23.2 74.8 1017.8 3.5 S 6.7 S 0.0 0.1
19:05 23.2 74.6 1017.9 3.5 S 7.8 S 0.0 0.1
19:10 23.1 74.5 1018.0 0.8 WSW 3.2 SSW 0.0 0.1
19:15 23.1 74.6 1018.1 3.3 WNW 6.7 SSW 0.0 0.1
19:20 23.0 74.9 1018.1 2.2 N 4.9 NNE 0.0 0.1
19:25 22.9 75.0 1018.2 0.3 NNW 2.5 NNW 0.0 0.1
19:30 22.8 75.9 1018.2 3.3 NNW 5.6 N 0.0 0.1
19:35 22.6 76.2 1018.3 1.2 NNW 4.6 NNW 0.0 0.1
19:40 22.4 77.0 1018.5 3.3 NNW 5.6 NNW 0.0 0.1
19:45 22.3 77.4 1018.4 3.2 NNW 7.1 NNW 0.0 0.1
19:50 22.2 77.8 1018.5 3.2 NW 6.0 NW 0.0 0.1
19:55 22.0 77.7 1018.5 1.0 WNW 2.1 NW 0.0 0.1
20:00 21.9 78.7 1018.4 3.3 N 7.1 N 0.0 0.1
20:05 21.9 78.8 1018.3 2.2 N 5.6 N 0.0 0.1
20:10 21.6 79.0 1018.4 0.0 NNE 0.0 WNW 0.0 0.1
20:15 21.4 79.5 1018.6 0.2 WNW 2.1 WNW 0.0 0.1
20:20 21.2 80.2 1018.6 1.8 NNW 4.6 NNW 0.0 0.1
20:25 21.0 81.3 1018.6 4.2 NNW 5.6 NNW 0.0 0.1
20:30 20.9 81.7 1018.6 4.6 NW 6.4 NNW 0.0 0.1
20:35 20.8 82.3 1018.7 3.8 NNW 6.0 NNE 0.0 0.1
20:40 20.8 82.0 1018.8 3.7 N 5.6 N 0.0 0.1
20:45 20.6 82.1 1018.9 4.4 NNW 6.7 NNW 0.0 0.1
20:50 20.5 82.3 1018.9 3.3 NNW 5.6 N 0.0 0.1
20:55 20.4 82.6 1019.0 3.2 N 6.0 N 0.0 0.1
21:00 20.4 82.8 1019.0 3.9 NNW 7.4 NNW 0.0 0.1
21:05 20.4 82.8 1019.0 4.9 N 7.4 N 0.0 0.1
21:10 20.6 82.2 1019.0 5.3 N 8.5 0.0 0.1
21:15 20.6 81.5 1019.1 3.2 N 7.1 NNW 0.0 0.1
21:20 20.4 81.8 1019.1 4.5 NNW 7.4 N 0.0 0.1
21:25 20.4 82.2 1019.2 3.4 NNW 6.0 NW 0.0 0.1
21:30 20.3 82.5 1019.2 3.5 N 6.4 NNW 0.0 0.1
21:35 20.2 82.5 1019.2 3.1 NNW 6.7 N 0.0 0.1
21:40 20.1 82.8 1019.3 2.4 NNW 4.6 NNW 0.0 0.1
21:45 20.0 83.1 1019.5 2.6 NNW 4.6 NNW 0.0 0.1
21:50 19.9 83.6 1019.5 4.3 NNW 7.1 NNW 0.0 0.1
Máxima 29.1 92.9 1020.6 16.2 S 27.9 SE 0.0 928.0
Mínima 18.3 54.0 1017.5
Total 0.0